OBJECT BG, 68470

Orbit data source: Space-Track

You're viewing an Uncataloged Satellite

Recently launched and/or uncataloged satellites may have evolving metadata. Metadata may include but not limited to: Owner, Maufacturer, Bus, Motor, and Mission.

OBJECT BG, 68470 is a satellite in SSO that was launched on Mon, 30 Mar 2026 UTC via an FALCON 9 launch vehicle from the Air Force Western Test Range (AFWTR). Unknown objects in Earth's orbit typically refer to objects detected orbiting the Earth but have not yet been identified or cataloged. These objects could be anything from previously untracked satellites, spent rocket stages, debris from satellite collisions, or even natural meteoroids temporarily captured by Earth's gravity.

Loading next visibility...
Identifier
68470, 2026-067BG
Orbit
SSO
Country
Flag of TBDTBD
Related business
None
Manufacturer
Unknown
Mission
Operational spacecraft
Bus & Motor
Unknown
Mass
Unknown
Launch date (UTC)
2026-03-30 (1 month ago)
Launch vehicle
FALCON 9
Launch site
Air Force Western Test Range (AFWTR)
Object type
Unknown
Shape & HBR
Unknown shape, 1.1 m
Radar Cross Section
RCS unknown

Expand to show TLE details & history
Last TLE update: 16 hours ago

TLE from 16 hours ago
0 OBJECT BG
1 68470U 26067BG  26126.84329055  .00006518  00000-0  33337-3 0  9991
2 68470  97.4456  85.8209 0006180 197.2644 162.8380 15.16965408  5662
Epoch: 2026-05-06T20:14Z
TLE epoch observation values (Epoch: 2026-05-06T20:14:20.303Z)
Latitude
-0.00004°
Longitude
-82.46166°
Altitude
522.175 km
Speed
7.6 km/s
True Right ascension
05h 43m 17s
True Declination
0° 00' 00"
Sunlit
Object was in daylight at epoch
Visualization orbit readout
Latitude
Unknown
Longitude
Unknown
Altitude
Unknown
Speed
Unknown
Apparent Right ascension
Unknown
Apparent Declination
Unknown
Sunlit
N/A
Visualization observer readout
Local Sidereal Time
20:05:08
Azimuth
Unknown
Elevation
Unknown
Doppler factor
Unknown
Orbital elements
Apogee altitude
516.248 km
Perigee altitude
507.732 km
Semi-major axis
6,890.127 km
Eccentricity
0.00062
Inclination
97.4456°
RAAN
85.8209°
Arg. of periapsis
197.2644°
True anomaly
162.85888°
Mean anomaly
162.838°
Eccentric anomaly
162.84844°
Mean motion
3.79492 °/min
Orbital period
94.86 mins
BSTAR
0.00033337
Loading maneuver chart data...
Computing Atmospheric mass density...
Loading historical data...
Loading historical data...
Loading historical data...
Loading historical data...
Loading historical data...
Loading historical data...
Loading historical data...

Documentation

Showing up to 5 results
|